Regional Weather Roundup
Issued by NWS

Home | Current Version | Previous Version | Graphics & Text | Print | Product List | Glossary On
Versions: 1 2 3 4 5 6 7 8 9 10 11 12 13 14 15 16 17 18 19 20 21 22 23 24 25 26 27 28 29 30 31 32 33 34 35 36 37 38 39 40 41 42 43 44 45 46 47 48 49 50
677
ASUS43 KDMX 180306
RWRIA

WEATHER ROUNDUP FOR IOWA
NATIONAL WEATHER SERVICE DES MOINES IA
900 PM CST WED JAN 17 2018

NOTE: "FAIR" INDICATES FEW OR NO CLOUDS BELOW 12,000 FEET WITH NO
SIGNIFICANT WEATHER AND/OR OBSTRUCTIONS TO VISIBILITY.

* - THESE STATIONS ARE NOT NWS STATIONS...THUS NOT UNDER NWS
QUALITY CONTROL.  THEY ALSO DO NOT REPORT WEATHER SUCH
AS PRECIPITATION OR FOG.

IAZ001>003-012>014-020>022-031>034-043>046-180400-
   NORTHWEST IOWA

CITY           SKY/WX    TMP DP  RH WIND       PRES   REMARKS
CARROLL *      CLOUDY    19  12  73 SW28G35   30.24F WCI   1
CHEROKEE *     CLOUDY    24  17  73 SW13      30.21F WCI  12
DENISON *      CLOUDY    19  12  73 SW10G17   30.29F WCI   8
LE MARS *      CLOUDY    25  18  74 SW9       30.21F WCI  15
ORANGE CITY *  CLOUDY    25  19  80 SW8       30.19S WCI  16
SHELDON *      CLOUDY    25  18  74 SW12G18   30.17F WCI  14
SIOUX CITY     CLOUDY    26  17  68 S16       30.24F WCI  14
SPENCER        CLOUDY    25  16  68 SW18      30.17F WCI  11
STORM LAKE *   CLOUDY    23  14  68 SW23G29   30.20F WCI   7
$$

IAZ055>058-069>071-079>083-090>094-180400-
   SOUTHWEST IOWA

CITY           SKY/WX    TMP DP  RH WIND       PRES   REMARKS
ATLANTIC *     CLOUDY    19  10  68 SW14      30.32F WCI   6
AUDUBON *      CLOUDY    19  10  68 SW7       30.29F WCI  10
CLARINDA *     CLEAR     18  12  79 S8          N/A  WCI   7
COUNCIL BLFS * CLOUDY    19  12  73 SW14G20   30.32F WCI   6
CRESTON *      CLOUDY    18  10  73 SW12      30.35S WCI   5
HARLAN  *      CLOUDY    19  10  68 S14       30.33F WCI   6
LAMONI         CLEAR     19   9  65 SW15      30.37S WCI   5
RED OAK *      CLOUDY    18  10  73 S8        30.36F WCI   7
SHENANDOAH *   CLOUDY    18  10  73 S12       30.38F WCI   5
$$

IAZ047>049-059>061-072>074-084-180400-
   CENTRAL IOWA

CITY           SKY/WX    TMP DP  RH WIND       PRES   REMARKS
AMES           CLOUDY    19  12  74 SW20      30.26F WCI   3
ANKENY *       CLOUDY    21  10  63 SW14      30.32F WCI   8
BOONE *        CLOUDY    19  10  68 SW15G22   30.24F WCI   5
CHARITON *     CLOUDY    19  10  68 SW10      30.34F WCI   8
DES MOINES     CLOUDY    20  10  65 SW14      30.31F WCI   7
GRINNELL*      CLOUDY    19  10  70 SW17      30.31F WCI   3
KNOXVILLE *    CLOUDY    19   7  58 SW12      30.32F WCI   7
MARSHALLTOWN   CLOUDY    19  10  68 SW22      30.23F WCI   2
NEWTON *       CLOUDY    18  10  73 SW16      30.31F WCI   3
PELLA *        CLOUDY    21   9  60 SW10G16   30.35S WCI   9
PERRY *          N/A     20  10  65 SW18      30.28F WCI   5
$$

IAZ004>006-015-016-023>025-035-036-180400-
   NORTH CENTRAL IOWA

CITY           SKY/WX    TMP DP  RH WIND       PRES   REMARKS
ALGONA *       CLOUDY    23  23 100 SW14      30.18R WCI  11
CLARION *      CLOUDY    18  14  86 SW16      30.21F WCI   3
ESTHERVILLE    CLOUDY    24  17  74 W18G24    30.15F WCI  10
FORT DODGE *   CLOUDY    18  11  74 SW16      30.23F WCI   3
MASON CITY     CLOUDY    20  11  68 SW21G30   30.17S WCI   4
FOREST CITY *    N/A     19  14  79 SW14      30.17F WCI   6
WEBSTER CITY * CLOUDY    19  10  68 SW16G24   30.23R WCI   5
IOWA FALLS *     N/A     20  12  71 SW13      30.25S WCI   7
$$

IAZ007>011-017>019-026>030-037>042-050>054-066-180400-
   NORTHEAST IOWA

CITY           SKY/WX    TMP DP  RH WIND       PRES   REMARKS
CEDAR RAPIDS     N/A     20   9  62 SW17G24   30.27F WCI   5
CHARLES CITY *   N/A     19  12  73 SW14      30.20R WCI   6
CLINTON *        N/A     17  11  77 SW20      30.28F WCI   1
DECORAH *        N/A     19  10  68 SW12G22   30.16S WCI   7
DUBUQUE          N/A     18   8  65 SW18      30.21F WCI   2
MONTICELLO *     N/A     19   9  63 SW16      30.25F WCI   5
OELWEIN *        N/A     18  12  79 SW13      30.22F WCI   4
WATERLOO         N/A     19   9  65 SW18G24   30.23F WCI   4
$$

IAZ064-065-067-068-078-180400-
   EAST CENTRAL IOWA

CITY           SKY/WX    TMP DP  RH WIND       PRES   REMARKS
DAVENPORT        N/A     20  10  65 SW21      30.31F WCI   4
IOWA CITY        N/A     21   9  59 SW10      30.34F WCI  10
MT. PLEASANT * CLOUDY    18  10  73 SW16      30.38F WCI   3
MUSCATINE *      N/A     19  10  68 S12       30.37F WCI   7
QUAD CITIES      N/A     19  10  68 SW14      30.32F WCI   6
$$

IAZ062-063-075>077-085>089-095>099-180400-
   SOUTHEAST IOWA

CITY           SKY/WX    TMP DP  RH WIND       PRES   REMARKS
BURLINGTON     CLOUDY    17   9  70 SW15      30.38F WCI   2
FAIRFIELD *    CLOUDY    18   9  68 SW15      30.36S WCI   3
FORT MADISON * CLOUDY    18  10  73 SW12      30.40F WCI   5
KEOKUK *       CLOUDY    18  10  73 SW12      30.41F WCI   5
OSKALOOSA *      N/A     18  10  71 SW14      30.35S WCI   5
OTTUMWA        CLOUDY    21   8  57 SW15      30.35F WCI   8
WASHINGTON *   CLOUDY    19  12  73 SW17      30.35F WCI   4
$$

ABBREVIATIONS USED IN REMARKS
   TC - TEMPERATURES IN CELSIUS
  WCI - WIND CHILL INDEX
   HX - HEAT INDEX
  VSB - VISIBILITY
$$





USA.gov is the U.S. government's official web portal to all federal, state and local government web resources and services.